#timestamp,LO_Frequency,Hit,StdDev 
1687449615.5,286047007.9,N
1687449635.4,286047010.5,N
1687449655.2,286047010.7,N
1687449675.1,286047008.6,N
1687449676.0,286047008.6,N
1687449695.8,286047003.6,N
1687449715.6,286047010.2,N
1687449735.5,286047015.5,N
1687449755.3,286047015.6,N
1687449775.1,286047011.9,N
1687449795.9,286047008.3,N
1687449815.7,286047005.4,N
1687449835.6,286047002.7,N
1687449855.4,286046993.8,N
1687449875.2,286047007.4,N
1687449895.1,286047010.8,N
1687449896.0,286047010.8,N
1687449915.8,286047009.9,N
1687449935.6,286047009.9,N
1687449955.5,286047012.3,N
1687449975.3,286047012.4,N
1687449995.2,286047008.2,N
1687450015.9,286047010.3,N
1687450035.7,286047013.9,N
1687450055.6,286047013.8,N
1687450075.4,286047012.7,Y
1687450095.2,286047005.9,P
1687450115.1,286047004.1,N
1687450116.0,286047004.1,N
1687450135.8,286047007.6,Y
1687450155.7,286047001.0,P
1687450175.5,286046999.0,N
1687450195.4,286046997.1,N
1687450215.2,286046999.2,N
1687450235.0,286046997.4,N
1687450235.9,286046997.4,N
1687450255.8,286046996.5,N
1687450275.6,286046999.4,N
1687450295.4,286047001.0,N
1687450315.3,286046998.5,N
1687450335.1,286047002.3,N
1687450355.9,286047000.0,N
1687450375.7,286046998.2,N
1687450395.5,286046993.9,N
1687450415.4,286046993.8,N
1687450435.2,286046994.9,N
1687450455.0,286046996.7,N
1687450455.9,286046996.7,N
1687450475.8,286046999.5,N
1687450495.6,286046997.1,N
1687450515.5,286046996.7,N
1687450535.3,286046994.9,N
1687450555.1,286046996.8,N
1687450575.9,286046997.0,N
1687450595.7,286046996.7,N
1687450615.5,286046997.5,N
1687450635.4,286046996.1,N
1687450655.2,286046993.4,N
1687450675.1,286046997.0,N
1687450676.0,286046997.0,N
1687450695.8,286046997.7,N
1687450715.6,286046999.5,N
1687450735.5,286047011.9,Y
1687450755.3,286046995.8,P
1687450775.2,286046997.6,P
1687450795.9,286046992.6,P
1687450815.7,286046996.6,N
1687450835.6,286047002.4,N
1687450855.4,286047001.4,N
1687450875.2,286047004.9,N
1687450895.1,286047008.7,N
1687450896.0,286047008.7,N
1687450915.8,286047010.2,N
1687450935.7,286047008.6,N
1687450955.5,286047009.2,N
1687450975.3,286047008.5,N
1687450995.2,286047009.6,N
1687451015.9,286047016.8,N
1687451035.7,286047013.6,N
1687451055.6,286047013.2,N
1687451075.4,286047017.1,N
1687451095.2,286047016.2,N
1687451115.1,286047016.2,N
1687451116.0,286047016.2,N
1687451135.8,286047015.9,N
1687451155.7,286047015.6,N
1687451175.5,286047012.6,N
1687451195.3,286047014.4,N
1687451215.2,286047015.3,N
1687451235.0,286047013.5,N
1687451235.9,286047013.5,N
1687451255.8,286047011.1,N
1687451275.6,286047011.9,N
1687451295.4,286047012.6,N
1687451315.3,286047012.6,N
1687451335.1,286047011.3,N
1687451355.8,286047013.9,N
1687451375.7,286047017.3,Y
1687451395.5,286047005.0,P
1687451415.4,286046999.7,N
1687451435.2,286047000.8,N
1687451455.0,286047003.1,N
1687451455.9,286047003.1,N
1687451475.8,286047001.3,N
1687451495.6,286047001.9,N
1687451515.4,286047002.7,N
1687451535.3,286047005.7,N
1687451555.1,286047007.5,N
1687451575.9,286047007.3,N
1687451595.7,286047005.0,N
1687451615.5,286047006.5,N
1687451635.4,286047008.6,N
1687451655.2,286047006.6,N
1687451675.1,286047003.4,N
1687451676.0,286047003.4,N
1687451695.8,286047007.4,N
1687451715.6,286047006.3,N
1687451735.5,286047004.3,N
1687451755.3,286047003.4,N
1687451775.1,286047005.7,N
1687451795.9,286047005.6,N
1687451815.7,286047003.8,N
1687451835.6,286046998.4,N
1687451855.4,286047003.0,N
1687451875.2,286047006.9,N
1687451895.1,286047007.6,N
1687451896.0,286047007.6,N
1687451915.8,286046998.8,N
1687451935.6,286047006.7,N
1687451955.5,286047006.3,N
1687451975.3,286047003.5,N
1687451995.2,286047006.6,N
1687452015.9,286047003.5,N
1687452035.7,286046999.0,N
1687452055.6,286047003.5,N
1687452075.4,286047000.3,N
1687452095.2,286046998.3,N
1687452115.1,286047005.3,N
1687452116.0,286047005.3,N
1687452135.8,286047004.1,N
1687452155.7,286047004.4,N
1687452175.5,286046997.4,N
1687452195.3,286047008.9,Y
1687452215.2,286046998.8,P
1687452235.0,286047000.3,N
1687452235.9,286047000.3,N
1687452255.8,286047001.5,N
1687452275.6,286046996.5,N
1687452295.4,286047003.2,N
1687452315.3,286047008.7,Y
1687452335.1,286047009.4,P
1687452355.8,286047007.2,N
1687452375.7,286047004.9,N
1687452395.5,286047003.1,N
1687452415.4,286047004.5,N
1687452435.2,286047008.6,Y
1687452455.0,286046999.9,P
1687452455.9,286046999.9,N
1687452475.8,286047001.6,N
1687452495.6,286047001.7,N
1687452515.5,286047000.4,N
1687452535.3,286047001.4,N
1687452555.1,286047007.3,Y
1687452575.9,286047006.2,P
1687452595.7,286047006.3,N
1687452615.6,286047008.8,P
1687452635.4,286047006.8,N
1687452655.2,286047010.8,Y
1687452675.1,286046996.6,P
1687452676.0,286046996.6,N
1687452695.8,286046993.7,N
1687452715.6,286046989.5,N
1687452735.5,286046994.3,N
1687452755.3,286046990.1,N
1687452775.2,286046992.3,N
1687452795.9,286046989.2,N
1687452815.7,286046993.9,N
1687452835.6,286046993.8,N
1687452855.4,286046990.1,N
1687452875.2,286046993.0,N
1687452895.1,286046988.7,N
1687452896.0,286046988.7,N
1687452915.8,286046989.9,N
1687452935.7,286046989.6,N
1687452955.5,286046990.6,N
1687452975.3,286046990.0,N
1687452995.2,286046990.3,N
1687453015.9,286046995.8,N
1687453035.7,286046994.5,N
1687453055.6,286046993.8,N
1687453075.4,286046993.0,N
1687453095.3,286046989.5,N
1687453115.1,286046990.3,N
1687453116.0,286046990.3,N
1687453135.8,286046999.2,N
1687453155.7,286046995.5,N
1687453175.5,286046997.9,N
1687453195.3,286046997.1,N
